Wind_Speed
6 6 3 1 7 13 10 5 3 3 6 7 6 4 7 8 6 3 2 3 4 5 6 6 6 6 5 7 10 11 12 11 12 20 16 12 8 7 4 4 5 4 5
5 7 6 5 10 8 6 3 5 7 9 9 6 6 8 10 11 11 9 7 6 7 8 7 7 7 6 6 7 10 10 10 11 20 18 16 11 7 7 4 5 5 5
7 6 11 16 8 5 4 5 8 9 7 5 5 6 7 8 9 11 11 11 9 8 7 7 8 6 6 6 6 7 8 9 10 15 20 17 14 11 7 8 8 7 6
12 12 15 13 9 6 5 7 7 7 8 9 7 6 5 5 7 9 9 10 10 9 8 7 8 8 8 4 4 5 5 7 10 13 16 15 13 11 9 7 8 8 6
17 15 13 11 8 6 7 9 9 9 8 7 6 6 3 1 3 5 5 7 7 8 8 7 7 7 7 8 7 7 6 6 10 12 12 14 13 12 11 10 9 7 5
17 16 13 11 8 4 4 7 7 8 8 6 6 3 2 4 2 1 2 3 4 6 8 9 8 7 7 7 8 8 9 4 8 11 13 12 11 12 12 12 10 4 4
16 15 14 11 8 6 6 8 7 7 6 5 5 1 1 3 4 2 2 1 1 3 4 6 6 6 6 5 6 7 8 10 9 7 9 11 11 8 9 8 5 7 5
15 15 14 14 12 10 10 9 9 9 8 7 4 4 3 4 5 4 2 2 1 1 1 1 1 4 3 3 4 5 7 8 9 8 7 8 7 7 8 9 9 8 6
15 16 14 14 13 14 13 9 9 12 8 11 8 6 7 5 7 8 6 4 2 1 2 2 3 2 4 5 4 4 6 7 8 7 6 7 6 5 5 5 8 7 6
15 13 11 11 12 14 16 12 11 10 8 10 11 9 9 9 9 11 10 7 4 2 2 4 4 4 4 5 5 5 8 12 12 12 11 9 7 6 4 4 6 7 6
12 10 10 12 10 10 14 16 14 14 12 11 13 12 12 11 10 13 14 12 9 6 4 4 6 7 6 6 7 6 11 13 13 10 9 8 7 6 4 6 3 5 4
13 14 14 13 12 14 14 16 16 17 17 16 16 15 14 14 13 13 17 17 14 11 8 5 6 8 8 7 7 8 13 12 11 9 7 6 5 2 4 4 6 7 6
16 15 17 15 17 18 17 13 14 17 20 22 21 20 18 18 15 15 16 20 18 15 11 9 8 7 8 9 11 10 11 14 10 9 12 8 4 7 6 2 4 5 6
18 19 18 19 18 19 20 17 16 17 20 22 22 24 22 21 21 20 19 21 21 19 16 13 11 9 9 10 12 14 11 7 7 10 11 7 6 5 5 1 5 5 4
18 18 17 15 14 15 15 16 17 19 21 21 24 24 23 24 23 22 22 21 22 20 18 17 16 16 13 13 16 14 12 11 10 10 8 8 8 6 7 4 6 5 3
10 10 9 9 10 11 12 15 17 18 20 23 23 27 27 25 25 26 30 20 22 22 22 20 19 18 16 16 16 15 12 11 12 11 10 9 9 8 6 6 6 5 5
2 6 8 8 9 10 9 11 14 17 20 23 27 28 28 28 27 25 27 21 23 24 24 22 20 19 20 19 18 16 15 14 10 10 10 10 10 10 8 8 8 7 7
9 8 5 7 9 9 11 11 13 15 14 14 15 17 18 20 20 19 21 23 25 27 25 23 22 21 24 24 22 21 20 19 18 12 14 13 10 9 10 11 8 8 8
11 12 11 10 9 10 10 12 13 15 18 15 15 15 15 16 17 19 21 26 26 25 23 21 21 23 27 24 20 23 22 26 25 19 14 13 15 15 13 12 10 11 10
12 14 15 13 10 10 11 12 13 13 13 12 14 13 14 15 17 22 24 25 27 26 22 22 22 26 28 22 20 25 21 20 26 22 17 15 16 18 19 17 15 14 14
12 14 14 12 11 9 11 12 12 13 12 12 13 13 13 14 15 17 20 23 26 25 23 23 24 25 29 26 22 28 26 25 26 26 23 18 19 21 21 20 16 18 19
14 15 13 10 5 10 12 11 12 13 13 13 13 11 12 13 12 12 17 20 21 21 22 22 24 26 28 28 25 32 31 27 26 25 23 23 23 23 25 23 25 24 22
16 16 12 10 11 11 13 13 15 18 19 18 18 18 16 15 14 15 13 12 12 13 19 23 25 25 24 25 25 33 35 28 27 25 24 25 25 26 26 27 25 24 23
16 15 11 10 8 10 11 14 18 18 18 18 18 20 20 20 20 22 21 16 15 13 12 15 22 25 22 24 28 33 37 28 23 25 28 25 21 18 20 21 24 23 22
15 14 14 10 10 10 12 15 17 14 12 14 16 15 17 22 23 24 26 22 23 20 20 23 26 28 24 23 28 29 33 32 29 28 29 24 23 24 24 25 23 24 25
14 15 14 13 12 11 14 15 14 12 12 12 10 9 10 13 17 19 19 16 21 25 22 26 33 33 30 27 24 22 27 31 27 28 26 31 33 31 27 25 26 29 29
Wind_Direction
133 151 143 205 121 108 114 91 61 121 114 113 111 78 59 65 87 97 101 82 71 56 58 61 78 92 131 153 169 176 196 211 197 178 184 175 185 157 148 148 136 156 166
163 178 184 197 162 171 140 114 142 139 129 133 133 109 86 77 76 71 67 79 101 91 83 82 95 94 114 129 160 172 189 207 227 185 182 180 180 181 170 180 171 161 141
167 161 154 158 155 135 133 142 149 139 144 152 138 119 99 81 76 71 70 75 95 101 90 93 92 97 112 129 154 177 190 204 200 194 181 180 185 177 171 159 149 141 134
157 147 147 153 155 157 157 153 149 144 139 134 130 109 86 72 66 73 74 81 87 92 94 95 96 90 84 98 150 169 172 174 172 175 179 181 180 172 166 159 155 144 141
156 152 156 155 145 154 167 154 144 135 134 146 120 103 82 132 74 72 85 94 90 91 88 87 87 87 85 85 102 110 113 140 157 170 180 179 179 173 167 162 154 146 138
157 154 153 153 150 162 168 188 159 137 150 154 115 75 30 176 155 73 86 99 81 77 78 71 72 84 85 86 95 113 122 134 163 167 175 171 170 171 168 164 163 166 147
161 160 157 169 168 181 202 193 186 172 180 189 169 120 355 202 184 158 170 127 106 91 89 62 76 70 81 88 85 104 108 118 129 136 149 149 159 172 172 169 186 188 189
171 169 169 185 193 199 204 217 220 220 234 235 208 217 260 223 220 209 204 144 162 225 283 334 97 85 98 94 91 97 107 121 121 122 130 142 147 160 168 178 190 187 194
173 171 179 198 212 217 219 230 234 239 247 235 238 227 232 235 234 231 231 192 169 261 229 218 183 143 124 130 134 129 124 128 128 131 137 148 149 155 173 196 187 180 186
184 173 183 207 220 231 233 239 234 223 237 245 241 230 237 247 237 235 235 234 237 268 233 234 220 184 158 143 143 140 141 129 126 126 122 126 133 139 169 228 240 237 249
198 196 211 228 236 242 239 242 245 240 239 239 243 241 242 244 242 236 240 243 237 238 259 249 222 214 193 176 149 148 159 148 145 142 135 133 127 112 64 23 254 241 224
220 223 223 236 251 249 244 237 246 245 242 245 244 244 248 246 240 243 237 240 244 246 254 257 219 214 218 214 198 175 178 181 180 189 197 209 196 134 128 121 110 117 144
221 225 233 237 247 251 254 252 246 244 244 244 244 247 247 248 246 248 241 242 242 243 246 260 244 235 222 221 221 213 210 209 218 220 210 192 160 138 132 122 181 167 154
218 219 225 226 235 245 249 247 246 257 256 259 249 249 251 249 251 250 250 237 236 234 236 240 236 230 224 219 203 189 189 183 193 181 176 168 152 166 183 109 202 188 194
218 221 223 228 238 247 251 257 264 266 263 263 262 258 256 251 260 255 252 243 234 234 235 230 229 218 212 205 189 189 202 203 194 194 197 196 199 203 210 216 188 197 169
204 201 215 224 241 251 254 256 257 258 257 257 256 248 255 251 258 263 255 241 230 225 226 228 230 225 215 199 195 196 200 198 209 210 211 218 209 201 223 206 191 191 188
223 201 209 228 246 256 265 278 283 283 272 259 254 254 255 260 260 263 261 234 220 222 227 228 230 225 210 201 201 206 210 210 218 218 223 224 219 209 205 209 223 219 227
6 346 295 257 259 269 276 285 295 308 297 276 265 258 257 253 251 249 236 221 214 222 224 227 227 220 212 210 215 218 231 222 222 225 228 217 212 212 226 211 226 237 259
348 357 339 313 289 286 280 287 294 297 300 278 272 264 262 260 246 230 227 222 227 229 229 229 230 222 216 217 235 228 218 219 221 222 220 223 221 221 222 221 229 250 258
324 340 346 340 319 287 284 290 293 300 308 295 280 275 260 253 250 237 230 228 232 236 241 240 240 228 221 223 234 220 217 219 222 223 224 231 228 225 232 236 244 240 254
308 321 333 335 294 297 296 296 292 290 291 292 285 284 277 272 263 249 241 250 248 250 249 246 238 230 228 222 230 222 226 236 228 232 230 240 235 229 237 236 253 250 251
301 312 319 317 306 286 294 295 282 284 286 286 288 286 268 257 250 254 261 257 254 250 250 246 238 233 221 223 232 223 229 240 231 231 244 228 233 237 239 242 260 256 257
299 307 315 299 281 291 302 302 298 295 293 292 288 280 254 244 253 255 265 249 235 245 245 238 234 229 221 237 246 230 232 242 239 241 233 229 247 243 248 249 246 241 259
295 295 290 309 291 302 297 309 315 309 289 286 275 275 273 264 265 259 260 242 232 243 254 243 229 227 245 242 239 234 230 238 235 232 231 244 235 233 242 245 249 260 271
277 276 278 282 289 291 287 298 311 318 291 288 286 285 262 266 256 252 248 253 241 246 259 256 241 234 239 240 228 227 238 238 233 241 236 226 233 234 251 263 259 264 270
273 274 268 273 277 287 295 305 305 309 300 287 276 256 250 264 255 249 250 241 242 251 256 240 244 248 240 231 235 237 243 234 233 229 230 243 245 257 253 252 262 269 281
Height
1527 1529 1530 1532 1534 1531 1532 1532 1535 1536 1536 1536 1537 1536 1535 1534 1533 1532 1530 1529 1528 1528 1527 1526 1525 1526 1526 1527 1527 1528 1531 1533 1534 1537 1540 1542 1544 1545 1546 1546 1547 1548 1548
1527 1528 1528 1529 1533 1534 1533 1533 1534 1536 1537 1538 1538 1538 1537 1536 1535 1533 1531 1529 1529 1529 1529 1528 1528 1528 1528 1528 1529 1530 1532 1533 1534 1535 1538 1541 1544 1545 1546 1548 1549 1550 1550
1524 1525 1525 1528 1532 1533 1534 1534 1534 1535 1537 1538 1538 1538 1537 1537 1536 1535 1533 1532 1532 1531 1531 1531 1530 1530 1530 1531 1531 1532 1532 1533 1534 1535 1538 1541 1543 1545 1546 1548 1549 1550 1551
1520 1523 1525 1528 1530 1532 1533 1534 1535 1536 1536 1537 1538 1538 1537 1537 1537 1537 1536 1535 1534 1533 1533 1533 1533 1533 1532 1533 1533 1533 1533 1534 1535 1537 1539 1541 1543 1546 1548 1549 1550 1552 1553
1515 1520 1525 1527 1529 1531 1532 1532 1533 1535 1536 1537 1537 1538 1538 1538 1538 1538 1538 1537 1536 1535 1535 1536 1535 1534 1534 1534 1535 1535 1535 1535 1537 1538 1540 1542 1544 1545 1548 1550 1552 1553 1554
1515 1517 1523 1525 1528 1532 1533 1535 1536 1533 1534 1535 1537 1539 1538 1538 1539 1538 1538 1538 1537 1538 1538 1537 1536 1536 1535 1536 1536 1535 1536 1537 1538 1539 1540 1542 1545 1546 1548 1550 1552 1553 1554
1514 1517 1520 1523 1527 1531 1534 1535 1536 1536 1534 1534 1536 1538 1538 1538 1538 1538 1538 1539 1539 1539 1539 1538 1538 1537 1536 1538 1537 1537 1537 1537 1539 1540 1541 1542 1544 1546 1548 1550 1552 1553 1553
1512 1515 1519 1524 1527 1530 1533 1534 1536 1536 1534 1533 1535 1537 1538 1538 1538 1538 1538 1539 1539 1539 1539 1539 1539 1538 1538 1538 1538 1538 1539 1539 1540 1542 1543 1544 1545 1546 1547 1548 1550 1551 1552
1511 1514 1517 1523 1526 1528 1530 1532 1533 1534 1533 1533 1534 1536 1536 1537 1537 1537 1538 1539 1539 1539 1539 1539 1539 1539 1538 1539 1539 1539 1540 1540 1541 1542 1543 1543 1544 1546 1547 1548 1549 1551 1551
1511 1513 1517 1522 1524 1526 1528 1530 1531 1531 1532 1532 1533 1534 1535 1535 1535 1536 1536 1538 1538 1539 1539 1539 1539 1539 1539 1539 1539 1540 1540 1540 1541 1542 1542 1544 1544 1545 1546 1548 1548 1550 1550
1513 1514 1518 1522 1523 1523 1526 1527 1528 1529 1529 1529 1530 1532 1532 1533 1533 1534 1534 1535 1537 1537 1538 1538 1538 1538 1538 1539 1539 1540 1541 1541 1542 1543 1544 1545 1545 1545 1546 1546 1546 1547 1548
1511 1512 1514 1518 1521 1520 1522 1523 1524 1525 1525 1526 1527 1528 1528 1529 1530 1531 1531 1533 1534 1535 1536 1537 1536 1536 1536 1537 1538 1540 1540 1541 1541 1542 1543 1545 1546 1546 1545 1546 1546 1547 1546
1509 1510 1512 1515 1517 1516 1517 1518 1518 1520 1520 1521 1521 1523 1524 1525 1526 1527 1528 1529 1531 1532 1533 1534 1535 1535 1535 1535 1535 1536 1537 1538 1539 1541 1542 1544 1544 1545 1546 1546 1546 1546 1547
1507 1507 1508 1510 1513 1513 1513 1514 1514 1516 1516 1517 1517 1517 1518 1519 1520 1521 1522 1524 1525 1528 1529 1530 1531 1532 1532 1533 1533 1534 1536 1536 1538 1539 1541 1543 1542 1543 1545 1546 1545 1546 1546
1502 1501 1503 1506 1506 1507 1509 1510 1511 1511 1510 1511 1512 1512 1513 1513 1514 1516 1517 1519 1520 1523 1525 1526 1527 1528 1529 1530 1531 1533 1535 1536 1537 1538 1539 1540 1541 1542 1543 1544 1544 1544 1544
1498 1497 1497 1500 1503 1503 1504 1505 1505 1505 1505 1505 1506 1506 1507 1508 1509 1510 1510 1512 1514 1517 1518 1520 1522 1525 1526 1527 1530 1531 1533 1534 1536 1536 1537 1538 1539 1540 1541 1541 1542 1542 1542
1498 1495 1494 1496 1498 1499 1500 1500 1499 1499 1497 1498 1500 1501 1501 1502 1502 1503 1504 1505 1507 1511 1512 1515 1517 1520 1522 1525 1527 1529 1530 1531 1532 1534 1535 1536 1537 1538 1538 1539 1540 1540 1540
1497 1494 1493 1492 1494 1495 1496 1495 1495 1494 1493 1494 1494 1494 1494 1494 1495 1495 1498 1499 1502 1503 1506 1509 1512 1515 1517 1520 1522 1524 1526 1528 1529 1530 1532 1533 1534 1535 1535 1536 1536 1537 1537
1496 1491 1489 1488 1490 1491 1493 1492 1491 1491 1490 1489 1490 1490 1489 1489 1489 1491 1493 1494 1497 1499 1502 1505 1507 1510 1512 1515 1517 1518 1520 1521 1524 1526 1527 1529 1530 1531 1531 1532 1533 1533 1533
1493 1489 1486 1484 1486 1489 1490 1489 1488 1487 1487 1486 1486 1486 1486 1486 1485 1486 1488 1491 1492 1495 1497 1499 1502 1504 1507 1510 1511 1513 1514 1516 1518 1520 1522 1524 1525 1526 1527 1527 1528 1528 1529
1490 1487 1483 1483 1485 1487 1487 1485 1484 1483 1484 1483 1482 1483 1483 1483 1483 1484 1484 1486 1488 1490 1492 1494 1495 1498 1501 1503 1504 1506 1508 1510 1512 1514 1516 1518 1519 1520 1521 1523 1523 1523 1523
1486 1483 1481 1481 1483 1484 1484 1482 1480 1480 1480 1480 1479 1480 1480 1479 1480 1480 1480 1480 1481 1483 1485 1487 1488 1491 1493 1496 1498 1499 1501 1503 1505 1507 1509 1511 1512 1513 1514 1515 1517 1517 1516
1481 1478 1479 1479 1480 1480 1481 1480 1478 1476 1475 1475 1476 1476 1476 1476 1476 1476 1476 1476 1477 1477 1478 1479 1482 1484 1487 1489 1491 1493 1495 1496 1497 1500 1502 1504 1505 1506 1506 1507 1507 1510 1510
1476 1476 1477 1478 1478 1477 1477 1476 1474 1471 1470 1470 1470 1470 1471 1472 1473 1473 1474 1475 1475 1476 1476 1476 1477 1479 1481 1482 1482 1484 1487 1489 1491 1493 1495 1497 1498 1500 1501 1501 1500 1501 1501
1471 1473 1475 1476 1475 1474 1473 1472 1471 1468 1467 1467 1467 1465 1465 1465 1466 1467 1470 1471 1471 1472 1473 1472 1472 1473 1473 1474 1475 1477 1480 1482 1483 1484 1486 1489 1489 1490 1492 1494 1493 1493 1493
1467 1469 1470 1471 1470 1470 1469 1469 1468 1466 1465 1464 1463 1461 1461 1461 1462 1463 1465 1466 1467 1468 1466 1465 1465 1465 1466 1467 1468 1471 1473 1473 1475 1478 1480 1480 1480 1482 1483 1485 1484 1483 1483